• In Uzbekistan
  • List of Countries
  • For 7 days
  • Water Temperature
  • Weather Map
  • Weather Widgets
  • user-avatar
    Login

    Hourly Weather Nakuru

    Today, 21 November, Thursday

    Time Temperature Precipitation Wind Pressure Humidity
    00:00 +19°C° 0.1 mm 1 mps 604 mmHg 84%
    01:00 +16°C° 0.1 mm 0 mps 604 mmHg 84%
    02:00 +16°C° 0 mm 0 mps 603 mmHg 83%
    03:00 +15°C° 0 mm 0 mps 603 mmHg 84%
    04:00 +15°C° 0 mm 0 mps 603 mmHg 85%
    05:00 +15°C° 0 mm 0 mps 603 mmHg 85%
    06:00 +18°C° 0 mm 1 mps 604 mmHg 80%
    07:00 +20°C° 0 mm 1 mps 605 mmHg 75%
    08:00 +22°C° 0 mm 1 mps 606 mmHg 69%
    09:00 +23°C° 0 mm 1 mps 606 mmHg 64%
    10:00 +24°C° 0 mm 2 mps 606 mmHg 60%
    11:00 +25°C° 0 mm 2 mps 606 mmHg 56%
    12:00 +25°C° 0.4 mm 2 mps 605 mmHg 56%
    13:00 +26°C° 0.4 mm 2 mps 605 mmHg 55%
    14:00 +26°C° 0.4 mm 2 mps 604 mmHg 55%
    15:00 +24°C° 0.7 mm 2 mps 604 mmHg 61%
    16:00 +23°C° 0.7 mm 2 mps 603 mmHg 68%
    17:00 +22°C° 0.7 mm 1 mps 603 mmHg 74%
    18:00 +21°C° 0.6 mm 1 mps 603 mmHg 78%
    19:00 +20°C° 0.6 mm 1 mps 604 mmHg 82%
    20:00 +19°C° 0.6 mm 1 mps 604 mmHg 86%
    21:00 +19°C° 0.2 mm 1 mps 604 mmHg 87%
    22:00 +18°C° 0.2 mm 1 mps 604 mmHg 88%
    23:00 +16°C° 0.2 mm 0 mps 604 mmHg 89%

    Tomorrow, 22 November, Friday

    Time Temperature Precipitation Wind Pressure Humidity
    00:00 +16°C° 0 mm 0 mps 603 mmHg 89%
    01:00 +15°C° 0 mm 0 mps 603 mmHg 90%
    02:00 +15°C° 0 mm 0 mps 603 mmHg 90%
    03:00 +15°C° 0 mm 0 mps 603 mmHg 90%
    04:00 +16°C° 0 mm 1 mps 603 mmHg 90%
    05:00 +15°C° 0 mm 1 mps 603 mmHg 90%
    06:00 +18°C° 0 mm 1 mps 604 mmHg 84%
    07:00 +20°C° 0 mm 1 mps 605 mmHg 78%
    08:00 +22°C° 0 mm 1 mps 606 mmHg 73%
    09:00 +23°C° 0.9 mm 1 mps 606 mmHg 69%
    10:00 +24°C° 0.9 mm 1 mps 605 mmHg 65%
    11:00 +25°C° 0.9 mm 1 mps 605 mmHg 61%
    12:00 +25°C° 1.9 mm 1 mps 605 mmHg 62%
    13:00 +25°C° 1.9 mm 2 mps 604 mmHg 64%
    14:00 +25°C° 1.9 mm 2 mps 603 mmHg 65%
    15:00 +23°C° 1.9 mm 2 mps 603 mmHg 70%
    16:00 +22°C° 1.9 mm 1 mps 603 mmHg 75%
    17:00 +21°C° 1.9 mm 1 mps 602 mmHg 80%
    18:00 +20°C° 0.3 mm 1 mps 603 mmHg 82%
    19:00 +20°C° 0.3 mm 1 mps 603 mmHg 84%
    20:00 +19°C° 0.3 mm 1 mps 604 mmHg 85%
    21:00 +18°C° 0 mm 1 mps 603 mmHg 86%
    22:00 +18°C° 0 mm 1 mps 603 mmHg 87%
    23:00 +18°C° 0 mm 1 mps 603 mmHg 89%

    Day after tomorrow, 23 November, Saturday

    Time Temperature Precipitation Wind Pressure Humidity
    00:00 +16°C° 0 mm 1 mps 603 mmHg 89%
    01:00 +16°C° 0 mm 1 mps 603 mmHg 89%
    02:00 +15°C° 0 mm 0 mps 602 mmHg 90%
    03:00 +15°C° 0 mm 0 mps 602 mmHg 90%
    04:00 +15°C° 0 mm 0 mps 603 mmHg 90%
    05:00 +14°C° 0 mm 0 mps 603 mmHg 91%
    06:00 +16°C° 0 mm 0 mps 604 mmHg 86%
    07:00 +17°C° 0 mm 0 mps 605 mmHg 82%
    08:00 +19°C° 0 mm 0 mps 605 mmHg 78%
    09:00 +22°C° 0.4 mm 1 mps 605 mmHg 75%
    10:00 +22°C° 0.4 mm 1 mps 605 mmHg 72%
    11:00 +23°C° 0.4 mm 1 mps 605 mmHg 69%
    12:00 +22°C° 1.4 mm 1 mps 605 mmHg 74%
    13:00 +21°C° 1.4 mm 2 mps 604 mmHg 78%
    14:00 +20°C° 1.4 mm 3 mps 603 mmHg 83%
    15:00 +19°C° 1 mm 3 mps 603 mmHg 86%
    16:00 +19°C° 1 mm 2 mps 603 mmHg 88%
    17:00 +18°C° 1 mm 2 mps 603 mmHg 91%
    18:00 +18°C° 0.1 mm 2 mps 603 mmHg 91%
    19:00 +17°C° 0.1 mm 2 mps 604 mmHg 92%
    20:00 +18°C° 0.1 mm 1 mps 604 mmHg 92%
    21:00 +18°C° 0 mm 1 mps 604 mmHg 92%
    22:00 +16°C° 0 mm 1 mps 604 mmHg 93%
    23:00 +16°C° 0 mm 1 mps 604 mmHg 94%

    24 November, Sunday

    Time Temperature Precipitation Wind Pressure Humidity
    00:00 +16°C° 0 mm 1 mps 604 mmHg 94%
    01:00 +15°C° 0 mm 0 mps 603 mmHg 94%
    02:00 +14°C° 0 mm 0 mps 603 mmHg 94%
    03:00 +14°C° 0 mm 0 mps 603 mmHg 93%
    04:00 +14°C° 0 mm 0 mps 603 mmHg 93%
    05:00 +14°C° 0 mm 0 mps 603 mmHg 93%
    06:00 +16°C° 0 mm 1 mps 604 mmHg 88%
    07:00 +19°C° 0 mm 1 mps 605 mmHg 83%
    08:00 +20°C° 0 mm 1 mps 606 mmHg 78%
    09:00 +19°C° 0.7 mm 2 mps 605 mmHg 81%
    10:00 +19°C° 0.7 mm 2 mps 605 mmHg 84%
    11:00 +19°C° 0.7 mm 3 mps 604 mmHg 87%
    12:00 +20°C° 0.6 mm 3 mps 604 mmHg 82%
    13:00 +21°C° 0.6 mm 2 mps 604 mmHg 77%
    14:00 +23°C° 0.6 mm 2 mps 604 mmHg 72%
    15:00 +20°C° 1.5 mm 2 mps 604 mmHg 78%
    16:00 +19°C° 1.5 mm 2 mps 603 mmHg 85%
    17:00 +19°C° 1.5 mm 1 mps 603 mmHg 91%
    18:00 +19°C° 1.1 mm 1 mps 604 mmHg 91%
    19:00 +18°C° 1.1 mm 1 mps 604 mmHg 91%
    20:00 +18°C° 1.1 mm 1 mps 604 mmHg 91%
    21:00 +18°C° 0.5 mm 1 mps 604 mmHg 92%
    22:00 +18°C° 0.5 mm 1 mps 604 mmHg 92%
    23:00 +16°C° 0.5 mm 1 mps 604 mmHg 93%

    25 November, Monday

    Time Temperature Precipitation Wind Pressure Humidity
    00:00 +16°C° 0.3 mm 1 mps 604 mmHg 93%
    01:00 +16°C° 0.3 mm 1 mps 604 mmHg 92%
    02:00 +16°C° 0.3 mm 1 mps 603 mmHg 92%
    03:00 +16°C° 0.1 mm 1 mps 603 mmHg 92%
    04:00 +16°C° 0.1 mm 1 mps 604 mmHg 93%
    05:00 +16°C° 0.1 mm 1 mps 604 mmHg 93%
    06:00 +18°C° 0.1 mm 1 mps 605 mmHg 89%
    07:00 +18°C° 0.1 mm 1 mps 605 mmHg 85%
    08:00 +19°C° 0.1 mm 1 mps 606 mmHg 81%
    09:00 +20°C° 0.3 mm 1 mps 606 mmHg 79%
    10:00 +20°C° 0.3 mm 2 mps 606 mmHg 77%
    11:00 +20°C° 0.3 mm 2 mps 606 mmHg 75%
    12:00 +20°C° 0.5 mm 2 mps 605 mmHg 78%
    13:00 +19°C° 0.5 mm 2 mps 605 mmHg 80%
    14:00 +19°C° 0.5 mm 2 mps 604 mmHg 83%
    15:00 +18°C° 2.2 mm 2 mps 604 mmHg 88%
    16:00 +17°C° 2.2 mm 2 mps 604 mmHg 92%
    17:00 +16°C° 2.2 mm 2 mps 603 mmHg 97%
    18:00 +16°C° 3.2 mm 2 mps 604 mmHg 97%
    19:00 +15°C° 3.2 mm 2 mps 604 mmHg 97%
    20:00 +15°C° 3.2 mm 1 mps 605 mmHg 97%
    21:00 +15°C° 1.2 mm 1 mps 605 mmHg 97%
    22:00 +15°C° 1.2 mm 1 mps 605 mmHg 96%
    23:00 +15°C° 1.2 mm 1 mps 605 mmHg 96%

    26 November, Tuesday

    Time Temperature Precipitation Wind Pressure Humidity
    00:00 +15°C° 0.9 mm 1 mps 604 mmHg 96%
    01:00 +15°C° 0.9 mm 1 mps 604 mmHg 96%
    02:00 +15°C° 0.9 mm 1 mps 604 mmHg 96%
    03:00 +15°C° 0.4 mm 1 mps 604 mmHg 96%
    04:00 +15°C° 0.4 mm 1 mps 604 mmHg 96%
    05:00 +15°C° 0.4 mm 1 mps 604 mmHg 95%
    06:00 +15°C° 0.3 mm 1 mps 605 mmHg 94%
    07:00 +16°C° 0.3 mm 1 mps 605 mmHg 92%
    08:00 +16°C° 0.3 mm 1 mps 605 mmHg 90%
    09:00 +17°C° 0.1 mm 2 mps 605 mmHg 88%
    10:00 +17°C° 0.1 mm 2 mps 605 mmHg 86%
    11:00 +18°C° 0.1 mm 3 mps 605 mmHg 84%
    12:00 +18°C° 0.1 mm 3 mps 605 mmHg 83%
    13:00 +18°C° 0.1 mm 3 mps 604 mmHg 82%
    14:00 +18°C° 0.1 mm 3 mps 604 mmHg 82%
    15:00 +18°C° 0.1 mm 3 mps 604 mmHg 84%
    16:00 +17°C° 0.1 mm 3 mps 604 mmHg 87%
    17:00 +16°C° 0.1 mm 3 mps 603 mmHg 90%
    18:00 +16°C° 0.1 mm 3 mps 604 mmHg 91%
    19:00 +15°C° 0.1 mm 2 mps 604 mmHg 92%
    20:00 +15°C° 0.1 mm 1 mps 604 mmHg 93%
    21:00 +15°C° 0.3 mm 1 mps 604 mmHg 94%
    22:00 +15°C° 0.3 mm 1 mps 604 mmHg 94%
    23:00 +15°C° 0.3 mm 1 mps 604 mmHg 94%
    Show more